Hourly Weather Bárna

Today, 19 June, Saturday

Time Temperature Precipitation Wind Pressure Humidity
00:00 +19°C° 0 mm 1 mps 723 mmHg 77%
01:00 +19°C° 0 mm 1 mps 723 mmHg 79%
02:00 +18°C° 0 mm 1 mps 723 mmHg 81%
03:00 +18°C° 0 mm 1 mps 723 mmHg 83%
04:00 +16°C° 0 mm 1 mps 723 mmHg 85%
05:00 +19°C° 0 mm 1 mps 723 mmHg 79%
06:00 +21°C° 0 mm 1 mps 723 mmHg 73%
07:00 +21°C° 0 mm 0 mps 723 mmHg 68%
08:00 +25°C° 0 mm 1 mps 723 mmHg 62%
09:00 +26°C° 0 mm 1 mps 723 mmHg 56%
10:00 +28°C° 0 mm 1 mps 723 mmHg 51%
11:00 +29°C° 0 mm 1 mps 723 mmHg 48%
12:00 +29°C° 0 mm 1 mps 723 mmHg 46%
13:00 +30°C° 0 mm 2 mps 723 mmHg 43%
14:00 +30°C° 0 mm 1 mps 722 mmHg 44%
15:00 +30°C° 0 mm 1 mps 722 mmHg 44%
16:00 +30°C° 0 mm 1 mps 722 mmHg 45%
17:00 +28°C° 0.1 mm 1 mps 722 mmHg 55%
18:00 +26°C° 0.1 mm 1 mps 721 mmHg 64%
19:00 +24°C° 0.1 mm 1 mps 721 mmHg 73%
20:00 +22°C° 0.4 mm 1 mps 721 mmHg 79%
21:00 +21°C° 0.4 mm 1 mps 721 mmHg 85%
22:00 +19°C° 0.4 mm 1 mps 721 mmHg 90%
23:00 +19°C° 0.3 mm 1 mps 721 mmHg 91%

Tomorrow, 20 June, Sunday

Time Temperature Precipitation Wind Pressure Humidity
00:00 +18°C° 0.3 mm 1 mps 721 mmHg 92%
01:00 +16°C° 0.3 mm 0 mps 721 mmHg 92%
02:00 +18°C° 0 mm 1 mps 721 mmHg 93%
03:00 +16°C° 0 mm 1 mps 721 mmHg 94%
04:00 +16°C° 0 mm 1 mps 721 mmHg 94%
05:00 +18°C° 0 mm 1 mps 721 mmHg 90%
06:00 +20°C° 0 mm 1 mps 721 mmHg 86%
07:00 +21°C° 0 mm 1 mps 722 mmHg 82%
08:00 +23°C° 0 mm 1 mps 722 mmHg 75%
09:00 +25°C° 0 mm 1 mps 722 mmHg 67%
10:00 +27°C° 0 mm 1 mps 722 mmHg 59%
11:00 +27°C° 0.1 mm 1 mps 722 mmHg 58%
12:00 +28°C° 0.1 mm 1 mps 721 mmHg 57%
13:00 +28°C° 0.1 mm 1 mps 721 mmHg 55%
14:00 +28°C° 0.3 mm 1 mps 720 mmHg 55%
15:00 +28°C° 0.3 mm 1 mps 720 mmHg 55%
16:00 +26°C° 0.3 mm 0 mps 720 mmHg 55%
17:00 +27°C° 0.5 mm 1 mps 720 mmHg 63%
18:00 +25°C° 0.5 mm 1 mps 719 mmHg 72%
19:00 +23°C° 0.5 mm 1 mps 719 mmHg 80%
20:00 +22°C° 0.2 mm 1 mps 719 mmHg 82%
21:00 +21°C° 0.2 mm 1 mps 719 mmHg 85%
22:00 +20°C° 0.2 mm 1 mps 719 mmHg 88%
23:00 +20°C° 0 mm 1 mps 719 mmHg 88%

Day after tomorrow, 21 June, Monday

Time Temperature Precipitation Wind Pressure Humidity
00:00 +20°C° 0 mm 1 mps 719 mmHg 89%
01:00 +17°C° 0 mm 0 mps 718 mmHg 90%
02:00 +19°C° 0 mm 1 mps 718 mmHg 90%
03:00 +19°C° 0 mm 1 mps 718 mmHg 91%
04:00 +18°C° 0 mm 1 mps 718 mmHg 91%
05:00 +20°C° 0 mm 1 mps 718 mmHg 87%
06:00 +21°C° 0 mm 1 mps 718 mmHg 82%
07:00 +23°C° 0 mm 1 mps 718 mmHg 78%
08:00 +25°C° 0 mm 1 mps 718 mmHg 70%
09:00 +26°C° 0 mm 2 mps 718 mmHg 62%
10:00 +28°C° 0 mm 2 mps 718 mmHg 55%
11:00 +28°C° 0.1 mm 2 mps 718 mmHg 55%
12:00 +28°C° 0.1 mm 2 mps 718 mmHg 55%
13:00 +29°C° 0.1 mm 2 mps 718 mmHg 55%
14:00 +28°C° 0.2 mm 2 mps 718 mmHg 59%
15:00 +28°C° 0.2 mm 2 mps 718 mmHg 64%
16:00 +27°C° 0.2 mm 1 mps 717 mmHg 68%
17:00 +26°C° 0.1 mm 1 mps 717 mmHg 72%
18:00 +25°C° 0.1 mm 1 mps 717 mmHg 75%
19:00 +24°C° 0.1 mm 2 mps 717 mmHg 78%
20:00 +23°C° 1 mm 2 mps 717 mmHg 82%
21:00 +21°C° 1 mm 2 mps 717 mmHg 87%
22:00 +20°C° 1 mm 1 mps 717 mmHg 91%
23:00 +20°C° 0.7 mm 1 mps 717 mmHg 92%

22 June, Tuesday

Time Temperature Precipitation Wind Pressure Humidity
00:00 +20°C° 0.7 mm 1 mps 717 mmHg 92%
01:00 +20°C° 0.7 mm 1 mps 717 mmHg 93%
02:00 +19°C° 0.1 mm 1 mps 717 mmHg 93%
03:00 +19°C° 0.1 mm 1 mps 717 mmHg 94%
04:00 +19°C° 0.1 mm 1 mps 717 mmHg 94%
05:00 +20°C° 0 mm 1 mps 718 mmHg 91%
06:00 +21°C° 0 mm 1 mps 718 mmHg 87%
07:00 +23°C° 0 mm 1 mps 719 mmHg 84%
08:00 +25°C° 0 mm 1 mps 719 mmHg 76%
09:00 +26°C° 0 mm 1 mps 719 mmHg 68%
10:00 +28°C° 0 mm 1 mps 720 mmHg 60%
11:00 +29°C° 0 mm 1 mps 720 mmHg 57%
12:00 +30°C° 0 mm 1 mps 720 mmHg 54%
13:00 +31°C° 0 mm 1 mps 720 mmHg 51%
14:00 +31°C° 0.1 mm 1 mps 720 mmHg 52%
15:00 +31°C° 0.1 mm 2 mps 720 mmHg 53%
16:00 +31°C° 0.1 mm 2 mps 720 mmHg 54%
17:00 +29°C° 0.4 mm 1 mps 720 mmHg 62%
18:00 +27°C° 0.4 mm 1 mps 720 mmHg 71%
19:00 +25°C° 0.4 mm 1 mps 721 mmHg 79%
20:00 +24°C° 0.2 mm 1 mps 721 mmHg 82%
21:00 +23°C° 0.2 mm 1 mps 721 mmHg 84%
22:00 +22°C° 0.2 mm 1 mps 721 mmHg 87%
23:00 +22°C° 0 mm 1 mps 721 mmHg 88%

23 June, Wednesday

Time Temperature Precipitation Wind Pressure Humidity
00:00 +21°C° 0 mm 1 mps 721 mmHg 90%
01:00 +21°C° 0 mm 1 mps 721 mmHg 91%
02:00 +20°C° 0 mm 1 mps 721 mmHg 92%
03:00 +20°C° 0 mm 1 mps 721 mmHg 92%
04:00 +20°C° 0 mm 1 mps 721 mmHg 93%
05:00 +21°C° 0 mm 1 mps 721 mmHg 89%
06:00 +23°C° 0 mm 1 mps 722 mmHg 86%
07:00 +24°C° 0 mm 1 mps 722 mmHg 82%
08:00 +26°C° 0.1 mm 1 mps 722 mmHg 75%
09:00 +28°C° 0.1 mm 2 mps 722 mmHg 68%
10:00 +29°C° 0.1 mm 2 mps 723 mmHg 61%
11:00 +30°C° 0.1 mm 2 mps 723 mmHg 57%
12:00 +31°C° 0.1 mm 2 mps 722 mmHg 53%
13:00 +32°C° 0.1 mm 2 mps 722 mmHg 49%
14:00 +32°C° 0 mm 2 mps 722 mmHg 48%
15:00 +32°C° 0 mm 1 mps 722 mmHg 47%
16:00 +32°C° 0 mm 1 mps 722 mmHg 46%
17:00 +31°C° 0 mm 1 mps 722 mmHg 54%
18:00 +29°C° 0 mm 1 mps 722 mmHg 62%
19:00 +27°C° 0 mm 1 mps 721 mmHg 69%
20:00 +26°C° 0 mm 1 mps 722 mmHg 72%
21:00 +25°C° 0 mm 1 mps 722 mmHg 75%
22:00 +24°C° 0 mm 1 mps 722 mmHg 79%
23:00 +23°C° 0 mm 1 mps 722 mmHg 81%

24 June, Thursday

Time Temperature Precipitation Wind Pressure Humidity
00:00 +23°C° 0 mm 1 mps 722 mmHg 82%
01:00 +22°C° 0 mm 1 mps 722 mmHg 84%
02:00 +22°C° 0 mm 1 mps 721 mmHg 86%
03:00 +22°C° 0 mm 1 mps 721 mmHg 87%
04:00 +21°C° 0 mm 1 mps 721 mmHg 89%
05:00 +23°C° 0 mm 1 mps 722 mmHg 85%
06:00 +24°C° 0 mm 1 mps 722 mmHg 81%
07:00 +25°C° 0 mm 1 mps 722 mmHg 76%
08:00 +27°C° 0 mm 1 mps 722 mmHg 69%
09:00 +29°C° 0 mm 2 mps 723 mmHg 61%
10:00 +30°C° 0 mm 2 mps 723 mmHg 53%
11:00 +31°C° 0 mm 2 mps 723 mmHg 50%
12:00 +33°C° 0 mm 3 mps 723 mmHg 46%
13:00 +34°C° 0 mm 4 mps 723 mmHg 43%
14:00 +33°C° 0 mm 4 mps 723 mmHg 45%
15:00 +33°C° 0 mm 4 mps 723 mmHg 47%
16:00 +32°C° 0 mm 4 mps 723 mmHg 49%
17:00 +29°C° 0 mm 3 mps 722 mmHg 58%
18:00 +27°C° 0 mm 3 mps 722 mmHg 68%
19:00 +25°C° 0 mm 2 mps 722 mmHg 77%
20:00 +24°C° 0 mm 2 mps 722 mmHg 80%
21:00 +23°C° 0 mm 1 mps 722 mmHg 83%
22:00 +22°C° 0 mm 1 mps 722 mmHg 86%
23:00 +22°C° 0 mm 1 mps 721 mmHg 86%
Show more